START_TIME,STEP,MOV.,P11,t_acc.,P23,t_acc.,P27,t_acc.,A4,t_acc.
1979-07-14 21:00:23.360 ,0,0,10.,4.8,0.,4.8,0.,4.8,0.,4.8
1979-07-14 21:00:28.160 ,0,0,11.,4.8,0.,4.8,0.,4.8,0.,4.8
1979-07-14 21:00:32.960 ,0,0,8.,4.8,0.,4.8,0.,4.8,0.,4.8
1979-07-14 21:00:37.760 ,0,0,9.,4.8,0.,4.8,0.,4.8,0.,4.8
1979-07-14 21:00:42.560 ,0,0,7.,4.8,0.,4.8,0.,4.8,0.,4.8
1979-07-14 21:00:47.360 ,0,0,8.,4.8,0.,4.8,0.,4.8,0.,4.8
1979-07-14 21:00:52.160 ,0,0,10.,4.8,0.,4.8,0.,4.8,0.,4.8
1979-07-14 21:00:56.960 ,0,0,5.,4.8,0.,4.8,0.,4.8,0.,4.8
1979-07-14 21:01:01.760 ,0,0,7.,4.8,0.,4.8,0.,4.8,0.,4.8
1979-07-14 21:01:06.560 ,0,0,9.,4.8,0.,4.8,0.,4.8,0.,4.8
1979-07-14 21:01:11.360 ,0,0,9.,4.8,0.,4.8,0.,4.8,0.,4.8
1979-07-14 21:01:16.160 ,0,0,5.,4.8,0.,4.8,0.,4.8,0.,4.8
1979-07-14 21:01:20.960 ,0,0,2.,4.8,0.,4.8,0.,4.8,0.,4.8
1979-07-14 21:01:25.760 ,0,0,8.,4.8,0.,4.8,0.,4.8,0.,4.8
1979-07-14 21:01:30.560 ,0,0,5.,4.8,0.,4.8,0.,4.8,0.,4.8
1979-07-14 21:01:35.360 ,1,0,1.,4.8,0.,4.8,0.,4.8,0.,4.8
1979-07-14 21:01:40.160 ,1,0,5.,4.8,0.,4.8,0.,4.8,0.,4.8
1979-07-14 21:01:44.960 ,1,0,5.,4.8,0.,4.8,0.,4.8,0.,4.8
1979-07-14 21:01:49.760 ,1,0,7.,4.8,0.,4.8,0.,4.8,0.,4.8
1979-07-14 21:01:54.560 ,1,0,6.,4.8,0.,4.8,0.,4.8,1.,4.8
1979-07-14 21:01:59.360 ,1,0,10.,4.8,0.,4.8,0.,4.8,1.,4.8
1979-07-14 21:02:04.160 ,1,0,6.,4.8,0.,4.8,0.,4.8,2.,4.8
1979-07-14 21:02:08.960 ,1,0,6.,4.8,0.,4.8,0.,4.8,1.,4.8
1979-07-14 21:02:13.760 ,1,0,10.,4.8,0.,4.8,0.,4.8,0.,4.8
1979-07-14 21:02:18.560 ,1,0,10.,4.8,0.,4.8,0.,4.8,0.,4.8
1979-07-14 21:02:23.360 ,2,0,10.,4.8,0.,4.8,0.,4.8,0.,4.8
1979-07-14 21:02:28.160 ,2,0,8.,4.8,0.,4.8,0.,4.8,0.,4.8
1979-07-14 21:02:32.960 ,2,0,7.,4.8,0.,4.8,0.,4.8,0.,4.8
1979-07-14 21:02:37.760 ,2,0,8.,4.8,0.,4.8,0.,4.8,0.,4.8
1979-07-14 21:02:42.560 ,2,0,3.,4.8,0.,4.8,0.,4.8,0.,4.8
1979-07-14 21:02:47.360 ,2,0,5.,4.8,0.,4.8,0.,4.8,0.,4.8
1979-07-14 21:02:52.160 ,2,0,3.,4.8,0.,4.8,0.,4.8,0.,4.8
1979-07-14 21:02:56.960 ,2,0,6.,4.8,0.,4.8,0.,4.8,0.,4.8
1979-07-14 21:03:01.760 ,2,0,5.,4.8,0.,4.8,0.,4.8,0.,4.8
1979-07-14 21:03:06.560 ,2,0,10.,4.8,0.,4.8,0.,4.8,0.,4.8
1979-07-14 21:03:11.360 ,3,0,3.,4.8,0.,4.8,0.,4.8,0.,4.8
1979-07-14 21:03:16.160 ,3,0,3.,4.8,0.,4.8,0.,4.8,1.,4.8
1979-07-14 21:03:20.960 ,3,0,2.,4.8,0.,4.8,0.,4.8,1.,4.8
1979-07-14 21:03:25.760 ,3,0,3.,4.8,0.,4.8,0.,4.8,0.,4.8
1979-07-14 21:03:30.560 ,3,0,4.,4.8,0.,4.8,0.,4.8,0.,4.8
1979-07-14 21:03:35.360 ,3,0,8.,4.8,0.,4.8,0.,4.8,0.,4.8
1979-07-14 21:03:40.160 ,3,0,11.,4.8,0.,4.8,0.,4.8,0.,4.8
1979-07-14 21:03:44.960 ,3,0,4.,4.8,0.,4.8,0.,4.8,0.,4.8
1979-07-14 21:03:49.760 ,3,0,7.,4.8,0.,4.8,0.,4.8,1.,4.8
1979-07-14 21:03:54.560 ,3,0,9.,4.8,0.,4.8,0.,4.8,0.,4.8
1979-07-14 21:03:59.360 ,4,0,7.,4.8,0.,4.8,0.,4.8,0.,4.8
1979-07-14 21:04:04.160 ,4,0,5.,4.8,0.,4.8,0.,4.8,0.,4.8
1979-07-14 21:04:08.960 ,4,0,6.,4.8,0.,4.8,0.,4.8,1.,4.8
1979-07-14 21:04:13.760 ,4,0,11.,4.8,0.,4.8,0.,4.8,0.,4.8
1979-07-14 21:04:18.560 ,4,0,4.,4.8,0.,4.8,0.,4.8,0.,4.8
1979-07-14 21:04:23.360 ,4,0,6.,4.8,0.,4.8,0.,4.8,0.,4.8
1979-07-14 21:04:28.160 ,4,0,7.,4.8,0.,4.8,0.,4.8,2.,4.8
1979-07-14 21:04:32.960 ,4,0,7.,4.8,0.,4.8,0.,4.8,0.,4.8
1979-07-14 21:04:37.760 ,4,0,9.,4.8,0.,4.8,0.,4.8,0.,4.8
1979-07-14 21:04:42.560 ,4,0,6.,4.8,0.,4.8,0.,4.8,0.,4.8
1979-07-14 21:04:47.360 ,5,0,7.,4.8,0.,4.8,0.,4.8,1.,4.8
1979-07-14 21:04:52.160 ,5,0,6.,4.8,0.,4.8,0.,4.8,0.,4.8
1979-07-14 21:04:56.960 ,5,0,4.,4.8,0.,4.8,0.,4.8,1.,4.8
1979-07-14 21:05:01.760 ,5,0,2.,4.8,0.,4.8,0.,4.8,0.,4.8
1979-07-14 21:05:06.560 ,5,0,6.,4.8,0.,4.8,0.,4.8,0.,4.8
1979-07-14 21:05:11.360 ,5,0,8.,4.8,0.,4.8,0.,4.8,0.,4.8
1979-07-14 21:05:16.160 ,5,0,4.,4.8,0.,4.8,0.,4.8,0.,4.8
1979-07-14 21:05:20.960 ,5,0,3.,4.8,0.,4.8,0.,4.8,0.,4.8
1979-07-14 21:05:25.760 ,5,0,3.,4.8,0.,4.8,0.,4.8,0.,4.8
1979-07-14 21:05:30.560 ,5,0,13.,4.8,0.,4.8,0.,4.8,0.,4.8
1979-07-14 21:05:35.360 ,6,0,6.,4.8,0.,4.8,0.,4.8,1.,4.8
1979-07-14 21:05:40.160 ,6,0,10.,4.8,0.,4.8,0.,4.8,0.,4.8
1979-07-14 21:05:44.960 ,6,0,9.,4.8,0.,4.8,0.,4.8,0.,4.8
1979-07-14 21:05:49.760 ,6,0,5.,4.8,0.,4.8,0.,4.8,0.,4.8
1979-07-14 21:05:54.560 ,6,0,5.,4.8,0.,4.8,0.,4.8,0.,4.8
1979-07-14 21:05:59.360 ,6,0,8.,4.8,0.,4.8,0.,4.8,0.,4.8
1979-07-14 21:06:04.160 ,6,0,2.,4.8,0.,4.8,0.,4.8,0.,4.8
1979-07-14 21:06:08.960 ,6,0,9.,4.8,0.,4.8,0.,4.8,0.,4.8
1979-07-14 21:06:13.760 ,6,0,5.,4.8,0.,4.8,0.,4.8,0.,4.8
1979-07-14 21:06:18.560 ,6,0,3.,4.8,0.,4.8,0.,4.8,0.,4.8
1979-07-14 21:06:23.360 ,7,0,7.,4.8,0.,4.8,0.,4.8,0.,4.8
1979-07-14 21:06:28.160 ,7,0,4.,4.8,0.,4.8,0.,4.8,0.,4.8
1979-07-14 21:06:32.960 ,7,0,3.,4.8,0.,4.8,0.,4.8,0.,4.8
1979-07-14 21:06:37.760 ,7,0,6.,4.8,0.,4.8,0.,4.8,0.,4.8
1979-07-14 21:06:42.560 ,7,0,2.,4.8,0.,4.8,0.,4.8,0.,4.8
1979-07-14 21:06:47.360 ,7,0,4.,4.8,0.,4.8,0.,4.8,0.,4.8
1979-07-14 21:06:52.160 ,7,0,8.,4.8,0.,4.8,0.,4.8,0.,4.8
1979-07-14 21:06:56.960 ,7,0,1.,4.8,0.,4.8,0.,4.8,0.,4.8
1979-07-14 21:07:01.760 ,7,0,3.,4.8,0.,4.8,0.,4.8,0.,4.8
1979-07-14 21:07:06.560 ,7,0,0.,4.8,0.,4.8,0.,4.8,0.,4.8
1979-07-14 21:07:11.360 ,3,1,3.,4.8,0.,4.8,0.,4.8,0.,4.8
1979-07-14 21:07:16.160 ,3,1,11.,4.8,0.,4.8,0.,4.8,0.,4.8
1979-07-14 21:07:20.960 ,3,1,9.,4.8,0.,4.8,0.,4.8,0.,4.8
1979-07-14 21:07:25.760 ,3,1,7.,4.8,0.,4.8,0.,4.8,0.,4.8
1979-07-14 21:07:30.560 ,3,1,10.,4.8,0.,4.8,0.,4.8,1.,4.8
1979-07-14 21:07:35.360 ,0,1,5.,4.8,0.,4.8,0.,4.8,0.,4.8
1979-07-14 21:07:40.160 ,0,1,10.,4.8,0.,4.8,0.,4.8,0.,4.8
1979-07-14 21:07:44.960 ,0,1,7.,4.8,0.,4.8,0.,4.8,0.,4.8
1979-07-14 21:07:49.760 ,0,1,7.,4.8,0.,4.8,0.,4.8,0.,4.8
1979-07-14 21:07:54.560 ,0,1,6.,4.8,0.,4.8,0.,4.8,0.,4.8
1979-07-14 21:07:59.360 ,4,1,3.,4.8,0.,4.8,0.,4.8,0.,4.8
1979-07-14 21:08:04.160 ,4,1,5.,4.8,0.,4.8,0.,4.8,0.,4.8
1979-07-14 21:08:08.960 ,4,1,8.,4.8,0.,4.8,0.,4.8,0.,4.8
1979-07-14 21:08:13.760 ,4,1,6.,4.8,0.,4.8,0.,4.8,0.,4.8
1979-07-14 21:08:18.560 ,4,1,6.,4.8,0.,4.8,0.,4.8,0.,4.8
1979-07-14 21:08:23.360 ,7,1,3.,4.8,0.,4.8,0.,4.8,0.,4.8
1979-07-14 21:08:28.160 ,7,1,9.,4.8,0.,4.8,0.,4.8,0.,4.8
1979-07-14 21:08:32.960 ,7,1,7.,4.8,0.,4.8,0.,4.8,0.,4.8
1979-07-14 21:08:37.760 ,7,1,4.,4.8,0.,4.8,0.,4.8,0.,4.8
1979-07-14 21:08:42.560 ,7,1,3.,4.8,0.,4.8,0.,4.8,0.,4.8
1979-07-14 21:08:47.360 ,3,1,5.,4.8,0.,4.8,0.,4.8,0.,4.8
1979-07-14 21:08:52.160 ,3,1,9.,4.8,0.,4.8,0.,4.8,0.,4.8
1979-07-14 21:08:56.960 ,3,1,11.,4.8,0.,4.8,0.,4.8,1.,4.8
1979-07-14 21:09:01.760 ,3,1,3.,4.8,0.,4.8,0.,4.8,0.,4.8
1979-07-14 21:09:06.560 ,3,1,9.,4.8,0.,4.8,0.,4.8,0.,4.8
1979-07-14 21:09:11.360 ,0,1,4.,4.8,0.,4.8,0.,4.8,0.,4.8
1979-07-14 21:09:16.160 ,0,1,2.,4.8,0.,4.8,0.,4.8,0.,4.8
1979-07-14 21:09:20.960 ,0,1,6.,4.8,0.,4.8,0.,4.8,0.,4.8
1979-07-14 21:09:25.760 ,0,1,7.,4.8,0.,4.8,0.,4.8,0.,4.8
1979-07-14 21:09:30.560 ,0,1,6.,4.8,0.,4.8,0.,4.8,1.,4.8
1979-07-14 21:09:35.360 ,4,1,2.,4.8,0.,4.8,0.,4.8,0.,4.8
1979-07-14 21:09:40.160 ,4,1,3.,4.8,0.,4.8,0.,4.8,0.,4.8
1979-07-14 21:09:44.960 ,4,1,7.,4.8,0.,4.8,0.,4.8,0.,4.8
1979-07-14 21:09:49.760 ,4,1,7.,4.8,0.,4.8,0.,4.8,1.,4.8
1979-07-14 21:09:54.560 ,4,1,9.,4.8,0.,4.8,0.,4.8,0.,4.8
1979-07-14 21:09:59.360 ,7,1,6.,4.8,0.,4.8,0.,4.8,0.,4.8
1979-07-14 21:10:04.160 ,7,1,4.,4.8,0.,4.8,0.,4.8,0.,4.8
1979-07-14 21:10:08.960 ,7,1,5.,4.8,0.,4.8,0.,4.8,0.,4.8
1979-07-14 21:10:13.760 ,7,1,8.,4.8,0.,4.8,0.,4.8,0.,4.8
1979-07-14 21:10:18.560 ,7,1,3.,4.8,0.,4.8,0.,4.8,0.,4.8
1979-07-14 21:10:23.360 ,3,1,6.,4.8,0.,4.8,0.,4.8,0.,4.8
1979-07-14 21:10:28.160 ,3,1,3.,4.8,0.,4.8,0.,4.8,0.,4.8
1979-07-14 21:10:32.960 ,3,1,11.,4.8,0.,4.8,0.,4.8,0.,4.8
1979-07-14 21:10:37.760 ,3,1,9.,4.8,0.,4.8,0.,4.8,0.,4.8
1979-07-14 21:10:42.560 ,3,1,8.,4.8,0.,4.8,0.,4.8,2.,4.8
1979-07-14 21:10:47.360 ,0,1,5.,4.8,0.,4.8,0.,4.8,0.,4.8
1979-07-14 21:10:52.160 ,0,1,6.,4.8,0.,4.8,0.,4.8,0.,4.8
1979-07-14 21:10:56.960 ,0,1,5.,4.8,0.,4.8,0.,4.8,0.,4.8
1979-07-14 21:11:01.760 ,0,1,3.,4.8,0.,4.8,0.,4.8,0.,4.8
1979-07-14 21:11:06.560 ,0,1,4.,4.8,0.,4.8,0.,4.8,0.,4.8
1979-07-14 21:11:11.360 ,4,1,3.,4.8,0.,4.8,0.,4.8,0.,4.8
1979-07-14 21:11:16.160 ,4,1,2.,4.8,0.,4.8,0.,4.8,0.,4.8
1979-07-14 21:11:20.960 ,4,1,4.,4.8,0.,4.8,0.,4.8,0.,4.8
1979-07-14 21:11:25.760 ,4,1,3.,4.8,0.,4.8,0.,4.8,0.,4.8
1979-07-14 21:11:30.560 ,4,1,4.,4.8,0.,4.8,0.,4.8,0.,4.8
1979-07-14 21:11:35.360 ,7,1,8.,4.8,0.,4.8,0.,4.8,0.,4.8
1979-07-14 21:11:40.160 ,7,1,5.,4.8,0.,4.8,0.,4.8,0.,4.8
1979-07-14 21:11:44.960 ,7,1,5.,4.8,0.,4.8,0.,4.8,1.,4.8
1979-07-14 21:11:49.760 ,7,1,4.,4.8,0.,4.8,0.,4.8,0.,4.8
1979-07-14 21:11:54.560 ,7,1,1.,4.8,0.,4.8,0.,4.8,0.,4.8
1979-07-14 21:11:59.360 ,3,1,4.,4.8,0.,4.8,0.,4.8,0.,4.8
1979-07-14 21:12:04.160 ,3,1,5.,4.8,0.,4.8,0.,4.8,0.,4.8
1979-07-14 21:12:08.960 ,3,1,5.,4.8,0.,4.8,0.,4.8,0.,4.8
1979-07-14 21:12:13.760 ,3,1,5.,4.8,0.,4.8,0.,4.8,0.,4.8
1979-07-14 21:12:18.560 ,3,1,9.,4.8,0.,4.8,0.,4.8,0.,4.8
1979-07-14 21:12:23.360 ,0,1,7.,4.8,0.,4.8,0.,4.8,2.,4.8
1979-07-14 21:12:28.160 ,0,1,5.,4.8,0.,4.8,0.,4.8,0.,4.8
1979-07-14 21:12:32.960 ,0,1,1.,4.8,0.,4.8,0.,4.8,0.,4.8
1979-07-14 21:12:37.760 ,0,1,2.,4.8,0.,4.8,0.,4.8,0.,4.8
1979-07-14 21:12:42.560 ,0,1,8.,4.8,0.,4.8,0.,4.8,0.,4.8
1979-07-14 21:13:35.360 ,0,0,2.,4.8,0.,4.8,0.,4.8,0.,4.8
1979-07-14 21:13:40.160 ,0,0,5.,4.8,0.,4.8,0.,4.8,0.,4.8
1979-07-14 21:13:44.960 ,0,0,2.,4.8,0.,4.8,0.,4.8,0.,4.8
1979-07-14 21:13:49.760 ,0,0,8.,4.8,0.,4.8,0.,4.8,0.,4.8
1979-07-14 21:13:54.560 ,0,0,3.,4.8,0.,4.8,0.,4.8,0.,4.8
1979-07-14 21:13:59.360 ,0,1,6.,4.8,0.,4.8,0.,4.8,0.,4.8
1979-07-14 21:14:04.160 ,0,1,8.,4.8,0.,4.8,0.,4.8,0.,4.8
1979-07-14 21:14:08.960 ,0,1,5.,4.8,0.,4.8,0.,4.8,0.,4.8
1979-07-14 21:14:13.760 ,0,1,4.,4.8,0.,4.8,0.,4.8,0.,4.8
1979-07-14 21:14:18.560 ,0,1,5.,4.8,0.,4.8,0.,4.8,0.,4.8
1979-07-14 21:14:23.360 ,4,1,9.,4.8,0.,4.8,0.,4.8,0.,4.8
1979-07-14 21:14:28.160 ,4,1,4.,4.8,0.,4.8,0.,4.8,0.,4.8
1979-07-14 21:14:32.960 ,4,1,3.,4.8,0.,4.8,0.,4.8,0.,4.8
1979-07-14 21:14:37.760 ,4,1,2.,4.8,0.,4.8,0.,4.8,0.,4.8
1979-07-14 21:14:42.560 ,4,1,7.,4.8,0.,4.8,0.,4.8,0.,4.8
1979-07-14 21:14:47.360 ,7,1,5.,4.8,0.,4.8,0.,4.8,0.,4.8
1979-07-14 21:14:52.160 ,7,1,2.,4.8,0.,4.8,0.,4.8,0.,4.8
1979-07-14 21:14:56.960 ,7,1,5.,4.8,0.,4.8,0.,4.8,0.,4.8
1979-07-14 21:15:01.760 ,7,1,6.,4.8,0.,4.8,0.,4.8,0.,4.8
1979-07-14 21:15:06.560 ,7,1,6.,4.8,0.,4.8,0.,4.8,0.,4.8
1979-07-14 21:15:11.360 ,3,1,0.,4.8,0.,4.8,0.,4.8,0.,4.8
1979-07-14 21:15:16.160 ,3,1,6.,4.8,0.,4.8,0.,4.8,0.,4.8
1979-07-14 21:15:20.960 ,3,1,6.,4.8,0.,4.8,0.,4.8,0.,4.8
1979-07-14 21:15:25.760 ,3,1,2.,4.8,0.,4.8,0.,4.8,0.,4.8
1979-07-14 21:15:30.560 ,3,1,8.,4.8,0.,4.8,0.,4.8,0.,4.8
1979-07-14 21:15:35.360 ,0,1,8.,4.8,0.,4.8,0.,4.8,1.,4.8
1979-07-14 21:15:40.160 ,0,1,7.,4.8,0.,4.8,0.,4.8,0.,4.8
1979-07-14 21:15:44.960 ,0,1,10.,4.8,0.,4.8,0.,4.8,0.,4.8
1979-07-14 21:15:49.760 ,0,1,4.,4.8,0.,4.8,0.,4.8,0.,4.8
1979-07-14 21:15:54.560 ,0,1,7.,4.8,0.,4.8,0.,4.8,0.,4.8
1979-07-14 21:15:59.360 ,4,1,8.,4.8,0.,4.8,0.,4.8,0.,4.8
1979-07-14 21:16:04.160 ,4,1,5.,4.8,0.,4.8,0.,4.8,0.,4.8
1979-07-14 21:16:08.960 ,4,1,12.,4.8,0.,4.8,0.,4.8,0.,4.8
1979-07-14 21:16:13.760 ,4,1,7.,4.8,0.,4.8,0.,4.8,0.,4.8
1979-07-14 21:16:18.560 ,4,1,8.,4.8,0.,4.8,0.,4.8,0.,4.8
1979-07-14 21:16:23.360 ,7,1,6.,4.8,0.,4.8,0.,4.8,0.,4.8
1979-07-14 21:16:28.160 ,7,1,3.,4.8,0.,4.8,0.,4.8,0.,4.8
1979-07-14 21:16:32.960 ,7,1,6.,4.8,0.,4.8,0.,4.8,0.,4.8
1979-07-14 21:16:37.760 ,7,1,0.,4.8,0.,4.8,0.,4.8,0.,4.8
1979-07-14 21:16:42.560 ,7,1,3.,4.8,0.,4.8,0.,4.8,0.,4.8
1979-07-14 21:16:47.360 ,3,1,3.,4.8,0.,4.8,0.,4.8,0.,4.8
1979-07-14 21:16:52.160 ,3,1,9.,4.8,0.,4.8,0.,4.8,0.,4.8
1979-07-14 21:16:56.960 ,3,1,3.,4.8,0.,4.8,0.,4.8,1.,4.8
1979-07-14 21:17:01.760 ,3,1,8.,4.8,0.,4.8,0.,4.8,1.,4.8
1979-07-14 21:17:06.560 ,3,1,5.,4.8,0.,4.8,0.,4.8,0.,4.8
1979-07-14 21:17:11.360 ,0,1,6.,4.8,0.,4.8,0.,4.8,0.,4.8
1979-07-14 21:17:16.160 ,0,1,10.,4.8,0.,4.8,0.,4.8,1.,4.8
1979-07-14 21:17:20.960 ,0,1,1.,4.8,0.,4.8,0.,4.8,0.,4.8
1979-07-14 21:17:25.760 ,0,1,6.,4.8,0.,4.8,0.,4.8,0.,4.8
1979-07-14 21:17:30.560 ,0,1,7.,4.8,0.,4.8,0.,4.8,0.,4.8
1979-07-14 21:17:35.360 ,0,0,4.,4.8,0.,4.8,0.,4.8,0.,4.8
1979-07-14 21:17:40.160 ,0,0,6.,4.8,0.,4.8,0.,4.8,0.,4.8
1979-07-14 21:17:44.960 ,0,0,6.,4.8,0.,4.8,0.,4.8,0.,4.8
1979-07-14 21:17:49.760 ,0,0,3.,4.8,0.,4.8,0.,4.8,0.,4.8
1979-07-14 21:17:54.560 ,0,0,4.,4.8,0.,4.8,0.,4.8,0.,4.8
1979-07-14 21:17:59.360 ,0,0,5.,4.8,0.,4.8,0.,4.8,0.,4.8
1979-07-14 21:18:04.160 ,0,0,6.,4.8,0.,4.8,0.,4.8,0.,4.8
1979-07-14 21:18:08.960 ,0,0,7.,4.8,0.,4.8,0.,4.8,0.,4.8
1979-07-14 21:18:13.760 ,0,0,4.,4.8,0.,4.8,0.,4.8,0.,4.8
1979-07-14 21:18:18.560 ,0,0,2.,4.8,0.,4.8,0.,4.8,0.,4.8
1979-07-14 21:18:23.350 ,5,0,2.,4.8,0.,4.8,0.,4.8,0.,4.8
1979-07-14 21:18:28.160 ,5,0,10.,4.8,0.,4.8,0.,4.8,0.,4.8
1979-07-14 21:18:32.950 ,5,0,2.,4.8,0.,4.8,0.,4.8,0.,4.8
1979-07-14 21:18:37.760 ,5,0,7.,4.8,0.,4.8,0.,4.8,0.,4.8
1979-07-14 21:18:42.560 ,5,0,3.,4.8,0.,4.8,0.,4.8,0.,4.8
1979-07-14 21:18:47.350 ,5,0,5.,4.8,0.,4.8,0.,4.8,0.,4.8
1979-07-14 21:18:52.160 ,5,0,7.,4.8,0.,4.8,0.,4.8,1.,4.8
1979-07-14 21:18:56.950 ,5,0,9.,4.8,0.,4.8,0.,4.8,0.,4.8
1979-07-14 21:19:01.760 ,5,0,5.,4.8,0.,4.8,0.,4.8,0.,4.8
1979-07-14 21:19:06.560 ,5,0,5.,4.8,0.,4.8,0.,4.8,0.,4.8
1979-07-14 21:19:11.350 ,4,0,3.,4.8,0.,4.8,0.,4.8,0.,4.8
1979-07-14 21:19:16.160 ,4,0,7.,4.8,0.,4.8,0.,4.8,0.,4.8
1979-07-14 21:19:20.950 ,4,0,6.,4.8,0.,4.8,0.,4.8,0.,4.8
1979-07-14 21:19:25.760 ,4,0,7.,4.8,0.,4.8,0.,4.8,1.,4.8
1979-07-14 21:19:30.560 ,4,0,6.,4.8,0.,4.8,0.,4.8,0.,4.8
1979-07-14 21:19:35.350 ,4,0,6.,4.8,0.,4.8,0.,4.8,1.,4.8
1979-07-14 21:19:40.160 ,4,0,6.,4.8,0.,4.8,0.,4.8,0.,4.8
1979-07-14 21:19:44.950 ,4,0,2.,4.8,0.,4.8,0.,4.8,0.,4.8
1979-07-14 21:19:49.760 ,4,0,7.,4.8,0.,4.8,0.,4.8,0.,4.8
1979-07-14 21:19:54.560 ,4,0,8.,4.8,0.,4.8,0.,4.8,0.,4.8
1979-07-14 21:19:59.350 ,3,0,6.,4.8,0.,4.8,0.,4.8,0.,4.8
1979-07-14 21:20:04.160 ,3,0,10.,4.8,0.,4.8,0.,4.8,0.,4.8
1979-07-14 21:20:08.950 ,3,0,5.,4.8,0.,4.8,0.,4.8,0.,4.8
1979-07-14 21:20:13.760 ,3,0,3.,4.8,0.,4.8,0.,4.8,0.,4.8
1979-07-14 21:20:18.560 ,3,0,5.,4.8,0.,4.8,0.,4.8,0.,4.8
1979-07-14 21:20:23.350 ,3,0,14.,4.8,0.,4.8,0.,4.8,0.,4.8
1979-07-14 21:20:28.160 ,3,0,11.,4.8,0.,4.8,0.,4.8,0.,4.8
1979-07-14 21:20:32.950 ,3,0,3.,4.8,0.,4.8,0.,4.8,0.,4.8
1979-07-14 21:20:37.760 ,3,0,7.,4.8,0.,4.8,0.,4.8,1.,4.8
1979-07-14 21:20:42.560 ,3,0,2.,4.8,0.,4.8,0.,4.8,1.,4.8
1979-07-14 21:20:47.350 ,2,0,5.,4.8,0.,4.8,0.,4.8,0.,4.8
1979-07-14 21:20:52.160 ,2,0,5.,4.8,0.,4.8,0.,4.8,0.,4.8
1979-07-14 21:20:56.950 ,2,0,6.,4.8,0.,4.8,0.,4.8,1.,4.8
1979-07-14 21:21:01.760 ,2,0,9.,4.8,0.,4.8,0.,4.8,1.,4.8
1979-07-14 21:21:06.560 ,2,0,10.,4.8,0.,4.8,0.,4.8,0.,4.8
1979-07-14 21:21:11.350 ,2,0,12.,4.8,0.,4.8,0.,4.8,0.,4.8
1979-07-14 21:21:16.160 ,2,0,8.,4.8,0.,4.8,0.,4.8,0.,4.8
1979-07-14 21:21:20.950 ,2,0,8.,4.8,0.,4.8,0.,4.8,0.,4.8
1979-07-14 21:21:25.760 ,2,0,6.,4.8,0.,4.8,0.,4.8,0.,4.8
1979-07-14 21:21:30.560 ,2,0,7.,4.8,0.,4.8,0.,4.8,0.,4.8
1979-07-14 21:21:35.350 ,1,0,4.,4.8,0.,4.8,0.,4.8,0.,4.8
1979-07-14 21:21:40.160 ,1,0,5.,4.8,0.,4.8,0.,4.8,0.,4.8
1979-07-14 21:21:44.950 ,1,0,8.,4.8,0.,4.8,0.,4.8,0.,4.8
1979-07-14 21:21:49.760 ,1,0,12.,4.8,0.,4.8,0.,4.8,0.,4.8
1979-07-14 21:21:54.560 ,1,0,6.,4.8,0.,4.8,0.,4.8,1.,4.8
1979-07-14 21:21:59.350 ,1,0,5.,4.8,0.,4.8,0.,4.8,0.,4.8
1979-07-14 21:22:04.160 ,1,0,4.,4.8,0.,4.8,0.,4.8,0.,4.8
1979-07-14 21:22:08.950 ,1,0,6.,4.8,0.,4.8,0.,4.8,0.,4.8
1979-07-14 21:22:13.760 ,1,0,8.,4.8,0.,4.8,0.,4.8,0.,4.8
1979-07-14 21:22:18.560 ,1,0,4.,4.8,0.,4.8,0.,4.8,0.,4.8
1979-07-14 21:22:23.350 ,0,0,7.,4.8,0.,4.8,0.,4.8,0.,4.8
1979-07-14 21:22:28.160 ,0,0,3.,4.8,0.,4.8,0.,4.8,0.,4.8
1979-07-14 21:22:32.950 ,0,0,8.,4.8,0.,4.8,0.,4.8,0.,4.8
1979-07-14 21:22:37.760 ,0,0,8.,4.8,0.,4.8,0.,4.8,0.,4.8
1979-07-14 21:22:42.560 ,0,0,2.,4.8,0.,4.8,0.,4.8,0.,4.8
1979-07-14 21:22:47.350 ,0,0,3.,4.8,0.,4.8,0.,4.8,0.,4.8
1979-07-14 21:22:52.160 ,0,0,3.,4.8,0.,4.8,0.,4.8,0.,4.8
1979-07-14 21:22:56.950 ,0,0,6.,4.8,0.,4.8,0.,4.8,0.,4.8
1979-07-14 21:23:01.760 ,0,0,4.,4.8,0.,4.8,0.,4.8,0.,4.8
1979-07-14 21:23:06.560 ,0,0,5.,4.8,0.,4.8,0.,4.8,0.,4.8
1979-07-14 21:23:11.350 ,0,0,3.,4.8,0.,4.8,0.,4.8,0.,4.8
1979-07-14 21:23:16.160 ,0,0,5.,4.8,0.,4.8,0.,4.8,1.,4.8
1979-07-14 21:23:20.950 ,0,0,4.,4.8,0.,4.8,0.,4.8,0.,4.8
1979-07-14 21:23:25.760 ,0,0,1.,4.8,0.,4.8,0.,4.8,0.,4.8
1979-07-14 21:23:30.560 ,0,0,4.,4.8,0.,4.8,0.,4.8,0.,4.8
1979-07-14 21:23:35.350 ,0,0,2.,4.8,0.,4.8,0.,4.8,0.,4.8
1979-07-14 21:23:40.160 ,0,0,4.,4.8,0.,4.8,0.,4.8,0.,4.8
1979-07-14 21:23:44.950 ,0,0,4.,4.8,0.,4.8,0.,4.8,0.,4.8
1979-07-14 21:23:49.760 ,0,0,5.,4.8,0.,4.8,0.,4.8,0.,4.8
1979-07-14 21:23:54.560 ,0,0,2.,4.8,0.,4.8,0.,4.8,0.,4.8
1979-07-14 21:23:59.350 ,1,0,2.,4.8,0.,4.8,0.,4.8,0.,4.8
1979-07-14 21:24:04.160 ,1,0,2.,4.8,0.,4.8,0.,4.8,0.,4.8
1979-07-14 21:24:08.950 ,1,0,5.,4.8,0.,4.8,0.,4.8,1.,4.8
1979-07-14 21:24:13.760 ,1,0,6.,4.8,0.,4.8,0.,4.8,0.,4.8
1979-07-14 21:24:18.560 ,1,0,2.,4.8,0.,4.8,0.,4.8,0.,4.8
1979-07-14 21:24:23.350 ,1,0,6.,4.8,0.,4.8,0.,4.8,0.,4.8
1979-07-14 21:24:28.160 ,1,0,7.,4.8,0.,4.8,0.,4.8,0.,4.8
1979-07-14 21:24:32.950 ,1,0,6.,4.8,0.,4.8,0.,4.8,0.,4.8
1979-07-14 21:24:37.760 ,1,0,6.,4.8,0.,4.8,0.,4.8,0.,4.8
1979-07-14 21:24:42.560 ,1,0,9.,4.8,0.,4.8,0.,4.8,0.,4.8
1979-07-14 21:24:47.350 ,2,0,4.,4.8,0.,4.8,0.,4.8,0.,4.8
1979-07-14 21:24:52.160 ,2,0,5.,4.8,0.,4.8,0.,4.8,0.,4.8
1979-07-14 21:24:56.950 ,2,0,8.,4.8,0.,4.8,0.,4.8,0.,4.8
1979-07-14 21:25:01.760 ,2,0,0.,4.8,0.,4.8,0.,4.8,0.,4.8
1979-07-14 21:25:06.560 ,2,0,9.,4.8,0.,4.8,0.,4.8,0.,4.8
1979-07-14 21:25:11.350 ,2,0,5.,4.8,0.,4.8,0.,4.8,1.,4.8
1979-07-14 21:25:16.160 ,2,0,4.,4.8,0.,4.8,0.,4.8,0.,4.8
1979-07-14 21:25:20.950 ,2,0,6.,4.8,0.,4.8,0.,4.8,0.,4.8
1979-07-14 21:25:25.760 ,2,0,6.,4.8,0.,4.8,0.,4.8,1.,4.8
1979-07-14 21:25:30.560 ,2,0,5.,4.8,0.,4.8,0.,4.8,0.,4.8
1979-07-14 21:25:35.350 ,3,0,6.,4.8,0.,4.8,0.,4.8,0.,4.8
1979-07-14 21:25:40.160 ,3,0,5.,4.8,0.,4.8,0.,4.8,0.,4.8
1979-07-14 21:25:44.950 ,3,0,7.,4.8,0.,4.8,0.,4.8,0.,4.8
1979-07-14 21:25:49.760 ,3,0,5.,4.8,0.,4.8,0.,4.8,1.,4.8
1979-07-14 21:25:54.560 ,3,0,5.,4.8,0.,4.8,0.,4.8,0.,4.8
1979-07-14 21:25:59.350 ,3,0,8.,4.8,0.,4.8,0.,4.8,0.,4.8
1979-07-14 21:26:04.160 ,3,0,8.,4.8,0.,4.8,0.,4.8,0.,4.8
1979-07-14 21:26:08.950 ,3,0,1.,4.8,0.,4.8,0.,4.8,0.,4.8
1979-07-14 21:26:13.760 ,3,0,3.,4.8,0.,4.8,0.,4.8,0.,4.8
1979-07-14 21:26:18.560 ,3,0,14.,4.8,0.,4.8,0.,4.8,0.,4.8
1979-07-14 21:26:23.350 ,4,0,7.,4.8,0.,4.8,0.,4.8,0.,4.8
1979-07-14 21:26:28.160 ,4,0,6.,4.8,0.,4.8,0.,4.8,0.,4.8
1979-07-14 21:26:32.950 ,4,0,9.,4.8,0.,4.8,0.,4.8,0.,4.8
1979-07-14 21:26:37.760 ,4,0,7.,4.8,0.,4.8,0.,4.8,0.,4.8
1979-07-14 21:26:42.560 ,4,0,7.,4.8,0.,4.8,0.,4.8,1.,4.8
1979-07-14 21:26:47.350 ,4,0,5.,4.8,0.,4.8,0.,4.8,0.,4.8
1979-07-14 21:26:52.160 ,4,0,8.,4.8,0.,4.8,0.,4.8,0.,4.8
1979-07-14 21:26:56.950 ,4,0,7.,4.8,0.,4.8,0.,4.8,0.,4.8
1979-07-14 21:27:01.760 ,4,0,11.,4.8,0.,4.8,0.,4.8,1.,4.8
1979-07-14 21:27:06.560 ,4,0,10.,4.8,0.,4.8,0.,4.8,0.,4.8
1979-07-14 21:27:11.350 ,5,0,5.,4.8,0.,4.8,0.,4.8,0.,4.8
1979-07-14 21:27:16.160 ,5,0,5.,4.8,0.,4.8,0.,4.8,0.,4.8
1979-07-14 21:27:20.950 ,5,0,6.,4.8,0.,4.8,0.,4.8,0.,4.8
1979-07-14 21:27:25.760 ,5,0,5.,4.8,0.,4.8,0.,4.8,0.,4.8
1979-07-14 21:27:30.560 ,5,0,11.,4.8,0.,4.8,0.,4.8,0.,4.8
1979-07-14 21:27:35.350 ,5,0,4.,4.8,0.,4.8,0.,4.8,0.,4.8
1979-07-14 21:27:40.160 ,5,0,3.,4.8,0.,4.8,0.,4.8,0.,4.8
1979-07-14 21:27:44.950 ,5,0,2.,4.8,0.,4.8,0.,4.8,0.,4.8
1979-07-14 21:27:49.760 ,5,0,9.,4.8,0.,4.8,0.,4.8,3.,4.8
1979-07-14 21:27:54.560 ,5,0,5.,4.8,0.,4.8,0.,4.8,0.,4.8
1979-07-14 21:27:59.350 ,6,0,7.,4.8,0.,4.8,0.,4.8,1.,4.8
1979-07-14 21:28:04.160 ,6,0,5.,4.8,0.,4.8,0.,4.8,0.,4.8
1979-07-14 21:28:08.950 ,6,0,3.,4.8,0.,4.8,0.,4.8,0.,4.8
1979-07-14 21:28:13.760 ,6,0,3.,4.8,0.,4.8,0.,4.8,0.,4.8
1979-07-14 21:28:18.560 ,6,0,7.,4.8,0.,4.8,0.,4.8,1.,4.8
1979-07-14 21:28:23.350 ,6,0,8.,4.8,0.,4.8,0.,4.8,0.,4.8
1979-07-14 21:28:28.160 ,6,0,7.,4.8,0.,4.8,0.,4.8,0.,4.8
1979-07-14 21:28:32.950 ,6,0,11.,4.8,0.,4.8,0.,4.8,0.,4.8
1979-07-14 21:28:37.760 ,6,0,3.,4.8,0.,4.8,0.,4.8,0.,4.8
1979-07-14 21:28:42.560 ,6,0,7.,4.8,0.,4.8,0.,4.8,0.,4.8
1979-07-14 21:28:47.350 ,7,0,2.,4.8,0.,4.8,0.,4.8,0.,4.8
1979-07-14 21:28:52.160 ,7,0,9.,4.8,0.,4.8,0.,4.8,0.,4.8
1979-07-14 21:28:56.950 ,7,0,4.,4.8,0.,4.8,0.,4.8,0.,4.8
1979-07-14 21:29:01.760 ,7,0,3.,4.8,0.,4.8,0.,4.8,0.,4.8
1979-07-14 21:29:06.560 ,7,0,3.,4.8,0.,4.8,0.,4.8,0.,4.8
1979-07-14 21:29:11.350 ,7,0,4.,4.8,0.,4.8,0.,4.8,0.,4.8
1979-07-14 21:29:16.160 ,7,0,2.,4.8,0.,4.8,0.,4.8,0.,4.8
1979-07-14 21:29:20.950 ,7,0,4.,4.8,0.,4.8,0.,4.8,0.,4.8
1979-07-14 21:29:25.760 ,7,0,3.,4.8,0.,4.8,0.,4.8,0.,4.8
1979-07-14 21:29:30.560 ,7,0,3.,4.8,0.,4.8,0.,4.8,0.,4.8
1979-07-14 21:29:35.350 ,7,0,3.,4.8,0.,4.8,0.,4.8,0.,4.8
1979-07-14 21:29:40.160 ,7,0,5.,4.8,0.,4.8,0.,4.8,0.,4.8
1979-07-14 21:29:44.950 ,7,0,6.,4.8,0.,4.8,0.,4.8,0.,4.8
1979-07-14 21:29:49.760 ,7,0,4.,4.8,0.,4.8,0.,4.8,0.,4.8
1979-07-14 21:29:54.560 ,7,0,0.,4.8,0.,4.8,0.,4.8,0.,4.8
1979-07-14 21:29:59.350 ,7,0,1.,4.8,0.,4.8,0.,4.8,0.,4.8
1979-07-14 21:30:04.160 ,7,0,4.,4.8,0.,4.8,0.,4.8,0.,4.8
1979-07-14 21:30:08.950 ,7,0,3.,4.8,0.,4.8,0.,4.8,0.,4.8
1979-07-14 21:30:13.760 ,7,0,2.,4.8,0.,4.8,0.,4.8,0.,4.8
1979-07-14 21:30:18.560 ,7,0,3.,4.8,0.,4.8,0.,4.8,0.,4.8
1979-07-14 21:31:11.350 ,0,0,8.,4.8,0.,4.8,0.,4.8,0.,4.8
1979-07-14 21:31:16.160 ,0,0,5.,4.8,0.,4.8,0.,4.8,0.,4.8
1979-07-14 21:31:20.950 ,0,0,2.,4.8,0.,4.8,0.,4.8,0.,4.8
1979-07-14 21:31:25.760 ,0,0,5.,4.8,0.,4.8,0.,4.8,0.,4.8
1979-07-14 21:31:30.560 ,0,0,7.,4.8,0.,4.8,0.,4.8,0.,4.8
1979-07-14 21:31:35.350 ,0,0,9.,4.8,0.,4.8,0.,4.8,0.,4.8
1979-07-14 21:31:40.160 ,0,0,4.,4.8,0.,4.8,0.,4.8,1.,4.8
1979-07-14 21:31:44.950 ,0,0,4.,4.8,0.,4.8,0.,4.8,0.,4.8
1979-07-14 21:31:49.760 ,0,0,5.,4.8,0.,4.8,0.,4.8,0.,4.8
1979-07-14 21:31:54.560 ,0,0,4.,4.8,0.,4.8,0.,4.8,0.,4.8
1979-07-14 21:31:59.350 ,4,0,6.,4.8,0.,4.8,0.,4.8,0.,4.8
1979-07-14 21:32:04.160 ,4,0,2.,4.8,0.,4.8,0.,4.8,0.,4.8
1979-07-14 21:32:08.950 ,4,0,3.,4.8,0.,4.8,0.,4.8,1.,4.8
1979-07-14 21:32:13.760 ,4,0,5.,4.8,0.,4.8,0.,4.8,0.,4.8
1979-07-14 21:32:18.560 ,4,0,5.,4.8,0.,4.8,0.,4.8,0.,4.8
1979-07-14 21:32:23.350 ,4,0,,0,,0,,0,,0
1979-07-14 21:32:28.160 ,4,0,4.,4.8,0.,4.8,0.,4.8,0.,4.8
1979-07-14 21:32:32.950 ,4,0,2.,4.8,0.,4.8,0.,4.8,1.,4.8
1979-07-14 21:32:37.760 ,4,0,5.,4.8,0.,4.8,0.,4.8,0.,4.8
1979-07-14 21:32:42.560 ,4,0,5.,4.8,0.,4.8,0.,4.8,0.,4.8
1979-07-14 21:32:47.350 ,3,0,1.,4.8,0.,4.8,0.,4.8,0.,4.8
1979-07-14 21:32:52.160 ,3,0,6.,4.8,0.,4.8,0.,4.8,0.,4.8
1979-07-14 21:32:56.950 ,3,0,8.,4.8,0.,4.8,0.,4.8,0.,4.8
1979-07-14 21:33:01.760 ,3,0,5.,4.8,0.,4.8,0.,4.8,1.,4.8
1979-07-14 21:33:06.560 ,3,0,8.,4.8,0.,4.8,0.,4.8,1.,4.8
1979-07-14 21:33:11.350 ,3,0,7.,4.8,0.,4.8,0.,4.8,0.,4.8
1979-07-14 21:33:16.160 ,3,0,4.,4.8,0.,4.8,0.,4.8,0.,4.8
1979-07-14 21:33:20.950 ,3,0,7.,4.8,0.,4.8,0.,4.8,0.,4.8
1979-07-14 21:33:25.760 ,3,0,7.,4.8,0.,4.8,0.,4.8,0.,4.8
1979-07-14 21:33:30.560 ,3,0,2.,4.8,0.,4.8,0.,4.8,0.,4.8
1979-07-14 21:33:35.350 ,2,0,2.,4.8,0.,4.8,0.,4.8,0.,4.8
1979-07-14 21:33:40.160 ,2,0,9.,4.8,0.,4.8,0.,4.8,0.,4.8
1979-07-14 21:33:44.950 ,2,0,6.,4.8,0.,4.8,0.,4.8,0.,4.8
1979-07-14 21:33:49.760 ,2,0,10.,4.8,0.,4.8,0.,4.8,0.,4.8
1979-07-14 21:33:54.560 ,2,0,9.,4.8,0.,4.8,0.,4.8,0.,4.8
1979-07-14 21:33:59.350 ,2,0,4.,4.8,0.,4.8,0.,4.8,1.,4.8
1979-07-14 21:34:04.160 ,2,0,6.,4.8,0.,4.8,0.,4.8,0.,4.8
1979-07-14 21:34:08.960 ,2,0,6.,4.8,0.,4.8,0.,4.8,0.,4.8
1979-07-14 21:34:13.760 ,2,0,6.,4.8,0.,4.8,0.,4.8,0.,4.8
1979-07-14 21:34:18.550 ,2,0,6.,4.8,0.,4.8,0.,4.8,0.,4.8
1979-07-14 21:34:23.350 ,1,0,5.,4.8,0.,4.8,0.,4.8,0.,4.8
1979-07-14 21:34:28.150 ,1,0,7.,4.8,0.,4.8,0.,4.8,0.,4.8
1979-07-14 21:34:32.950 ,1,0,10.,4.8,0.,4.8,0.,4.8,0.,4.8
1979-07-14 21:34:37.750 ,1,0,3.,4.8,0.,4.8,0.,4.8,0.,4.8
1979-07-14 21:34:42.550 ,1,0,6.,4.8,0.,4.8,0.,4.8,1.,4.8
1979-07-14 21:34:47.350 ,1,0,10.,4.8,0.,4.8,0.,4.8,0.,4.8
1979-07-14 21:34:52.150 ,1,0,13.,4.8,0.,4.8,0.,4.8,0.,4.8